Torna al catalogo

STARLINK-34059

AttivoComunicazioniVLEO
NORAD 63872·PAYLOAD·🇺🇸 United States

Lanciato May 10, 2025 da Vandenberg Space Force Base

Loading…

Prossimi Passaggi (prossime 24 ore)

TLE

AggiornatoSource: CelesTrak SupGP

Epoca: Sep 14, 2026, 20:50 UTC

1 63872C 25094J   26257.86854167 -.00023363  00000+0 -81283-3 0  2573
2 63872  69.9986 115.6292 0003285 270.1270 199.9109 15.29586506    14

Traccia STARLINK-34059 in tempo reale con AllMySat

Download on the App Store